Weather History for Belmar-Farmingdale, NJ

Change the Weather History Date:

Sunday, July 27, 2014

  Actual Average Record
Temperature  
Mean Temperature 79 °F -  
Max Temperature 89 °F 79 °F 98 °F (2005)
Min Temperature 69 °F 64 °F 60 °F (2001)
Cooling Degree Days 14    
Growing Degree Days 29 (Base 50)    
Moisture  
Dew Point 68 °F    
Average Humidity 74    
Maximum Humidity 89    
Minimum Humidity 52    
Precipitation  
Precipitation 0.04 in - - ()
Sea Level Pressure  
Sea Level Pressure 29.77 in    
Wind  
Wind Speed 6 mph (SW)    
Max Wind Speed 12 mph    
Max Gust Speed -    
Visibility 10 miles    
Events      
Averages and records for this station are not official NWS values.
T = Trace of Precipitation, MM = Missing Value Source: NWS Daily Summary

Daily Weather History Graph

Daily Weather History Graph

Search for Another Location

Airport:

Trip Planner

Search our weather history database for the weather conditions in past years. The results will help you decide how hot, cold, wet, or windy it might be!

Date:

Astronomy

Jul. 27, 2014 Rise Set
Actual Time 5:49 AM EDT 8:15 PM EDT
Civil Twilight 5:18 AM EDT 8:46 PM EDT
Nautical Twilight 4:40 AM EDT 9:24 PM EDT
Astronomical Twilight 3:58 AM EDT 10:06 PM EDT
Moon 6:34 AM EDT (7/27) 8:23 PM EDT (7/27)
Length of Visible Light 15h 27m
Length of Day
14h 25m
New Moon, 0% of the Moon is Illuminated
Jul 27
New Moon
Aug 3
First Quarter
Aug 10
Full
Aug 17
Last Quarter
Aug 25
New

Hourly Weather History & Observations

Time (EDT) Temp. Heat Index Dew Point Humidity Pressure Visibility Wind Dir Wind Speed Gust Speed Precip Events Conditions
12:35 AM 69.8 °F - 64.4 °F 83% 29.92 in 10.0 mi SW 5.8 mph - N/A   Clear
12:55 AM 69.8 °F - 64.4 °F 83% 29.92 in 10.0 mi SW 5.8 mph - N/A   Clear
1:15 AM 69.8 °F - 64.4 °F 83% 29.90 in 10.0 mi SSW 5.8 mph - N/A   Clear
1:35 AM 69.8 °F - 64.4 °F 83% 29.90 in 10.0 mi SSW 4.6 mph - N/A   Clear
1:55 AM 69.8 °F - 64.4 °F 83% 29.89 in 10.0 mi SSW 5.8 mph - N/A   Clear
2:15 AM 69.8 °F - 64.4 °F 83% 29.88 in 10.0 mi SSW 4.6 mph - N/A   Clear
2:35 AM 69.8 °F - 64.4 °F 83% 29.87 in 10.0 mi SSW 3.5 mph - N/A   Clear
2:55 AM 69.8 °F - 64.4 °F 83% 29.86 in 10.0 mi SW 3.5 mph - N/A   Clear
3:15 AM 69.8 °F - 64.4 °F 83% 29.85 in 10.0 mi SW 4.6 mph - N/A   Clear
3:35 AM 69.8 °F - 64.4 °F 83% 29.86 in 10.0 mi South 4.6 mph - N/A   Clear
3:55 AM 69.8 °F - 64.4 °F 83% 29.86 in 10.0 mi SSW 4.6 mph - N/A   Clear
4:15 AM 69.8 °F - 64.4 °F 83% 29.86 in 10.0 mi SSW 5.8 mph - N/A   Clear
4:35 AM 69.8 °F - 64.4 °F 83% 29.85 in 10.0 mi South 3.5 mph - N/A   Clear
4:55 AM 69.8 °F - 66.2 °F 88% 29.85 in 10.0 mi SSW 5.8 mph - N/A   Clear
5:15 AM 71.6 °F - 66.2 °F 83% 29.84 in 10.0 mi SSW 4.6 mph - N/A   Mostly Cloudy
5:35 AM 71.6 °F - 66.2 °F 83% 29.84 in 10.0 mi SSW 4.6 mph - N/A   Overcast
5:55 AM 71.6 °F - 66.2 °F 83% 29.84 in 10.0 mi South 5.8 mph - N/A   Mostly Cloudy
6:15 AM 71.6 °F - 66.2 °F 83% 29.84 in 10.0 mi WSW 3.5 mph - N/A   Overcast
6:35 AM 71.6 °F - 66.2 °F 83% 29.83 in 8.0 mi South 5.8 mph - 0.01 in   Overcast
6:55 AM 71.6 °F - 66.2 °F 83% 29.83 in 7.0 mi South 4.6 mph - 0.03 in   Overcast
7:15 AM 71.6 °F - 68.0 °F 88% 29.81 in 7.0 mi SSE 6.9 mph - 0.01 in   Mostly Cloudy
7:35 AM 71.6 °F - 68.0 °F 88% 29.81 in 7.0 mi South 5.8 mph - 0.01 in   Scattered Clouds
7:55 AM 73.4 °F - 69.8 °F 88% 29.81 in 8.0 mi South 4.6 mph - 0.01 in   Mostly Cloudy
8:15 AM 73.4 °F - 69.8 °F 88% 29.80 in 9.0 mi South 5.8 mph - N/A   Mostly Cloudy
8:35 AM 73.4 °F - 69.8 °F 88% 29.80 in 10.0 mi South 9.2 mph - N/A   Mostly Cloudy
8:55 AM 73.4 °F - 69.8 °F 88% 29.81 in 10.0 mi SSW 6.9 mph - N/A   Overcast
9:15 AM 73.4 °F - 69.8 °F 88% 29.80 in 5.0 mi South 6.9 mph - N/A   Overcast
9:35 AM 73.4 °F - 69.8 °F 88% 29.80 in 5.0 mi South 8.1 mph - N/A   Overcast
9:55 AM 73.4 °F - 69.8 °F 88% 29.80 in 7.0 mi SSE 4.6 mph - N/A   Overcast
10:15 AM 73.4 °F - 69.8 °F 88% 29.79 in 5.0 mi South 5.8 mph - N/A   Overcast
10:35 AM 75.2 °F - 71.6 °F 89% 29.79 in 10.0 mi South 6.9 mph - N/A   Overcast
10:55 AM 75.2 °F - 69.8 °F 83% 29.79 in 10.0 mi South 6.9 mph - N/A   Overcast
11:15 AM 77.0 °F - 71.6 °F 83% 29.78 in 10.0 mi SSW 5.8 mph - N/A   Mostly Cloudy
11:35 AM 80.6 °F 83.9 °F 69.8 °F 70% 29.77 in 10.0 mi SW 8.1 mph - N/A   Overcast
11:55 AM 82.4 °F 86.3 °F 69.8 °F 66% 29.77 in 10.0 mi WSW 10.4 mph - N/A   Mostly Cloudy
12:15 PM 82.4 °F 86.3 °F 69.8 °F 66% 29.76 in 10.0 mi WSW 6.9 mph - N/A   Mostly Cloudy
12:35 PM 82.4 °F 86.3 °F 69.8 °F 66% 29.76 in 10.0 mi West 4.6 mph - N/A   Overcast
12:55 PM 82.4 °F 86.3 °F 69.8 °F 66% 29.75 in 10.0 mi SW 6.9 mph - N/A   Overcast
1:15 PM 86.0 °F 90.4 °F 69.8 °F 58% 29.75 in 10.0 mi WSW 10.4 mph - N/A   Mostly Cloudy
1:35 PM 84.2 °F 88.4 °F 69.8 °F 62% 29.74 in 10.0 mi WSW 9.2 mph - N/A   Overcast
2:15 PM 87.8 °F 92.6 °F 69.8 °F 55% 29.74 in 10.0 mi West 5.8 mph - N/A   Overcast
2:35 PM 86.0 °F 90.4 °F 69.8 °F 58% 29.74 in 10.0 mi West 6.9 mph - N/A   Mostly Cloudy
2:55 PM 87.8 °F 92.6 °F 69.8 °F 55% 29.74 in 10.0 mi WSW 6.9 mph - N/A   Partly Cloudy
3:15 PM 87.8 °F 92.6 °F 69.8 °F 55% 29.74 in 10.0 mi West 6.9 mph - N/A   Partly Cloudy
3:35 PM 87.8 °F 92.6 °F 69.8 °F 55% 29.73 in 10.0 mi WSW 8.1 mph - N/A   Clear
3:55 PM 89.6 °F 94.7 °F 69.8 °F 52% 29.73 in 10.0 mi West 11.5 mph - N/A   Clear
4:15 PM 87.8 °F 92.6 °F 69.8 °F 55% 29.73 in 10.0 mi West 9.2 mph - N/A   Clear
4:35 PM 87.8 °F 92.6 °F 69.8 °F 55% 29.72 in 10.0 mi WSW 4.6 mph - N/A   Partly Cloudy
4:55 PM 87.8 °F 91.4 °F 68.0 °F 52% 29.71 in 10.0 mi West 6.9 mph - N/A   Clear
5:15 PM 87.8 °F 91.4 °F 68.0 °F 52% 29.71 in 10.0 mi WSW 4.6 mph - N/A   Clear
5:35 PM 87.8 °F 92.6 °F 69.8 °F 55% 29.70 in 10.0 mi SW 8.1 mph - N/A   Scattered Clouds
5:55 PM 87.8 °F 92.6 °F 69.8 °F 55% 29.69 in 10.0 mi WSW 4.6 mph - N/A   Partly Cloudy
6:15 PM 86.0 °F 90.4 °F 69.8 °F 58% 29.69 in 10.0 mi SW 3.5 mph - N/A   Clear
6:35 PM 86.0 °F 91.8 °F 71.6 °F 62% 29.69 in 10.0 mi South 5.8 mph - N/A   Clear
6:55 PM 84.2 °F 89.6 °F 71.6 °F 66% 29.69 in 10.0 mi SSW 8.1 mph - N/A   Clear
7:15 PM 82.4 °F 86.3 °F 69.8 °F 66% 29.69 in 10.0 mi SSW 8.1 mph - N/A   Clear
7:35 PM 82.4 °F 86.3 °F 69.8 °F 66% 29.69 in 10.0 mi SSW 9.2 mph - N/A   Clear
7:55 PM 80.6 °F 83.9 °F 69.8 °F 70% 29.70 in 10.0 mi SSW 6.9 mph - N/A   Clear
8:15 PM 80.6 °F 83.9 °F 69.8 °F 70% 29.70 in 10.0 mi SW 4.6 mph - N/A   Clear
8:35 PM 80.6 °F 83.9 °F 69.8 °F 70% 29.70 in 10.0 mi SW 6.9 mph - N/A   Clear
8:55 PM 78.8 °F - 69.8 °F 74% 29.69 in 10.0 mi SSW 5.8 mph - N/A   Clear
9:15 PM 78.8 °F - 69.8 °F 74% 29.70 in 10.0 mi WSW 5.8 mph - N/A   Clear
9:35 PM 78.8 °F - 69.8 °F 74% 29.70 in 10.0 mi SW 4.6 mph - N/A   Clear
9:55 PM 78.8 °F - 69.8 °F 74% 29.70 in 10.0 mi SW 5.8 mph - N/A   Clear
10:15 PM 78.8 °F - 69.8 °F 74% 29.70 in 10.0 mi SSW 4.6 mph - N/A   Clear
10:35 PM 78.8 °F - 69.8 °F 74% 29.69 in 10.0 mi South 5.8 mph - N/A   Partly Cloudy
10:55 PM 78.8 °F - 69.8 °F 74% 29.70 in 10.0 mi SW 8.1 mph - N/A   Clear
11:15 PM 78.8 °F - 69.8 °F 74% 29.69 in 10.0 mi SW 6.9 mph - N/A   Clear
11:35 PM 77.0 °F - 69.8 °F 78% 29.68 in 10.0 mi SW 4.6 mph - N/A   Clear
11:55 PM 77.0 °F - 69.8 °F 78% 29.68 in 10.0 mi SW 4.6 mph - N/A   Clear